Location: Berlin
(42.3812°N, 71.6370°W)
Time: 05:18:32
(UTC+00:00)

Cosmos 2242 Rocket - Pass Details

Date: 15 November 2025
Orbit: 614 x 644 km, 82.5° (Epoch: 09 December)

Event Time Altitude Azimuth Distance (km) Brightness Sun altitude
Rises 09:25:54 0° 175° (S) 2,870 7.1 -24.3°
Reaches altitude 10° 09:28:08 10° 171° (S) 1,972 6.3 -23.9°
Maximum altitude 09:32:24 54° 94° (E) 753 4.2 -23.1°
Drops below altitude 10° 09:36:43 10° 17° (NNE) 2,001 6.3 -22.3°
Sets 09:39:00 0° 13° (NNE) 2,917 7.1 -21.9°
